Location: �terpigny
(49.8910°N, 2.9249°E)
Time: 12:55:56
(UTC+00:00)

Cosmos 1140 Rocket - Pass Details

Date: 24 October 2021
Orbit: 743 x 768 km, 74.1° (Epoch: 05 December)

Event Time Altitude Azimuth Distance (km) Brightness Sun altitude
Rises 18:11:04 0° 340° (NNW) 3,217 7.0 -15.4°
Reaches altitude 10° 18:13:35 10° 347° (NNW) 2,293 6.1 -15.8°
Maximum altitude 18:18:29 40° 58° (ENE) 1,105 3.9 -16.6°
Enters shadow 18:20:36 28° 106° (ESE) 1,409 4.3 -16.9°
